Epoch 2000 June 25.0 TT = JDT 2451720.5 T 2000 July 13.1567 TT MPCN q 9.743093 (2000.0) P Q z -0.000395 Peri. 14.2668 -0.5685630 -0.7266853 +/-0.000003 Node 111.8356 +0.7081736 -0.6708574 e 1.003847 Incl. 24.5427 +0.4186004 +0.1479149 From 126 observations 2000 Jan. 4-2002 Feb. 15, mean residual 0".5.
m1 = 3.8 + 5 logΔ + 10.0 log r